• Join FlightAware (Why Join?)
  • Login
  • US Flag 
04:16AM EDT


 

Airport Tracker/Info


-or-


 

Live Flight TrackerFlight Track Log ✈ FLG4222 ✈ 22-Sep-2013 ✈ KBGM - KDTW

Flight Track Log - Related Links

Times and Time Zones

All times are in EDT time to prevent confusion due to time zone crossing. See the FLG4222 flight status page for this flight to view local times or setup timezone preferences in your user account.

Time Position Orientation Groundspeed Altitude Reporting Facility
EDT Latitude Longitude Course Direction KTS MPH feet Rate Location/Type
11:54AM 42.2400 -76.0303 289° West 242 278 4,100  Level Cleveland Center
11:55AM 42.2561 -76.0856 292° West 201 231 5,400 1,920 Climbing New York Center
11:56AM 42.2756 -76.1628 289° West 233 268 7,300 1,500 Climbing New York Center
11:57AM 42.2986 -76.2517 289° West 250 288 8,400 1,800 Climbing New York Center
11:58AM 42.3297 -76.3411 295° West 255 293 11,000 2,400 Climbing New York Center
11:58AM 42.3392 -76.3814 288° West 265 305 12,000 1,980 Climbing Cleveland Center
11:59AM 42.2267 -76.5880 289° West  Level Estimated
11:59AM 42.3644 -76.4772 290° West 270 311 14,100  Level Cleveland Center
12:00PM 42.3928 -76.5786 291° West 289 333 15,400 1,260 Climbing Cleveland Center
12:01PM 42.4283 -76.7103 290° West 309 356 16,700 1,080 Climbing Cleveland Center
12:02PM 42.4583 -76.8239 290° West 318 366 17,700 960 Climbing Cleveland Center
12:03PM 42.4892 -76.9425 289° West 331 381 18,700 960 Climbing Cleveland Center
12:04PM 42.4981 -77.0719 275° West 344 396 19,700 960 Climbing Cleveland Center
12:05PM 42.5064 -77.2011 275° West 343 395 20,700 960 Climbing Cleveland Center
12:06PM 42.5156 -77.3317 275° West 347 399 21,700 960 Climbing Cleveland Center
12:07PM 42.5269 -77.4864 276° West 351 404 22,700 720 Climbing Cleveland Center
12:08PM 42.5353 -77.6206 275° West 357 411 23,200 480 Climbing Cleveland Center
12:09PM 42.5447 -77.7600 275° West 370 426 23,700 480 Climbing Cleveland Center
12:10PM 42.5553 -77.9153 275° West 378 435 24,300 480 Climbing Cleveland Center
12:11PM 42.5644 -78.0611 275° West 385 443 24,800 480 Climbing Cleveland Center
12:12PM 42.5731 -78.2050 275° West 385 443 25,300 480 Climbing Cleveland Center
12:14PM 42.5817 -78.3489 275° West 384 442 25,800 300 Climbing Cleveland Center
12:15PM 42.5906 -78.4956 275° West 389 448 26,000 60 Climbing Cleveland Center
12:16PM 42.6014 -78.6481 276° West 404 465 26,000  Level Cleveland Center
12:17PM 42.6114 -78.8319 274° West 409 471 26,000  Level Cleveland Center
12:18PM 42.6217 -78.9858 275° West 410 472 26,000  Level Cleveland Center
12:19PM 42.6278 -79.1431 273° West 416 479 26,000  Level Cleveland Center
12:20PM 42.6267 -79.3014 270° West 419 482 26,000  Level Cleveland Center
12:21PM 42.6231 -79.4606 268° West 424 488 26,000  Level Cleveland Center
12:22PM 42.6175 -79.6528 268° West 426 490 26,000  Level Cleveland Center
12:23PM 42.6139 -79.8139 268° West 429 494 26,000  Level Cleveland Center
12:24PM 42.6081 -79.9811 267° West 428 493 26,000  Level Cleveland Center
12:25PM 42.6019 -80.1481 267° West 428 493 26,000  Level Cleveland Center
12:26PM 42.5969 -80.3106 268° West 429 494 26,000  Level Cleveland Center
12:27PM 42.5925 -80.4758 268° West 434 499 26,000  Level Cleveland Center
12:28PM 42.5878 -80.6400 268° West 434 499 26,000  Level Cleveland Center
12:29PM 42.5817 -80.8078 267° West 444 511 26,000 -480 Level Cleveland Center
12:30PM 42.5767 -80.9725 268° West 437 503 25,100 -1,020 Descending Cleveland Center
12:31PM 42.5692 -81.1619 267° West 430 495 24,000 -540 Descending Cleveland Center
12:32PM 42.5622 -81.3228 267° West 426 490 24,000 -720 Level Cleveland Center
12:33PM 42.5558 -81.4856 267° West 429 494 22,600 -1,440 Descending Cleveland Center
12:34PM 42.5511 -81.6508 268° West 435 501 21,100 -1,260 Descending Cleveland Center
12:35PM 42.5806 -81.7947 286° West 414 476 20,000 -1,260 Descending Cleveland Center
12:36PM 42.6075 -81.9244 286° West 363 418 18,500 -1,620 Descending Cleveland Center
12:37PM 42.6400 -82.0564 289° West 313 360 16,700 -1,200 Descending Cleveland Center
12:38PM 42.6639 -82.1628 287° West 298 343 16,000 -360 Descending Cleveland Center
12:39PM 42.6853 -82.2706 285° West 297 342 16,000 -60 Level Cleveland Center
12:40PM 42.7042 -82.3783 283° West 295 339 15,900 -540 Descending Cleveland Center
12:41PM 42.6886 -82.4167 241° Southwest 331 381 15,400 -2,040 Descending Cleveland Center
12:41PM 42.6356 -82.4581 210° Southwest 379 436 14,300 -1,440 Descending Cleveland Center
12:41PM 42.6297 -82.4619 206° Southwest 358 412 14,200 -1,620 Descending Cleveland Center
12:42PM 42.5431 -82.5228 207° Southwest 366 421 12,700 -1,560 Descending Cleveland Center
12:42PM 42.5383 -82.5236 187° South 368 423 12,600 -720 Descending Cleveland Center
12:43PM 42.4817 -82.6222 232° Southwest 342 394 12,000 -600 Descending Cleveland Center
12:44PM 42.4708 -82.6469 239° Southwest 348 400 12,000  Level Cleveland Center
12:45PM 42.4286 -82.7653 244° Southwest 348 400 12,000  Level Cleveland Center
12:45PM 42.3950 -82.8653 246° West 348 400 12,000  Level Cleveland Center
12:46PM 42.3869 -82.8814 236° Southwest 346 398 12,000  Level Cleveland Center
12:46PM 42.3578 -82.9706 246° West 289 333 12,000  Level Cleveland Center
12:47PM 42.3494 -82.9858 234° Southwest 314 361 12,000  Level Cleveland Center
12:47PM 42.3211 -83.0700 246° West 299 344 12,000  Level Cleveland Center
12:48PM 42.3144 -83.0842 238° Southwest 294 338 12,000  Level Cleveland Center
12:48PM 42.2856 -83.1525 240° Southwest 221 254 12,000  Level Cleveland Center
12:49PM 42.2781 -83.1589 212° Southwest 255 293 12,000 -300 Level Cleveland Center
12:49PM 42.2197 -83.1886 201° Southwest 253 291 11,700 -900 Descending Cleveland Center
12:50PM 42.1994 -83.1964 196° South 246 283 11,100 -1,800 Descending Cleveland Center
12:50PM 42.1544 -83.2219 203° Southwest 252 290 9,900 -1,800 Descending Cleveland Center
12:51PM 42.1333 -83.2314 198° South 252 290 9,300 -1,680 Descending Cleveland Center
12:51PM 42.0911 -83.2553 203° Southwest 242 278 8,200 -1,560 Descending Cleveland Center
12:52PM 42.0669 -83.2667 199° South 241 277 7,700 -1,200 Descending Cleveland Center
12:52PM 42.0364 -83.2869 206° Southwest 223 257 7,100 -1,260 Descending Cleveland Center
12:53PM 42.0106 -83.3014 203° Southwest 226 260 6,400 -1,380 Descending Cleveland Center
12:53PM 41.9744 -83.3261 207° Southwest 216 249 5,600 -1,260 Descending Cleveland Center
12:54PM 41.9564 -83.3350 200° South 217 250 5,100 -1,320 Descending Cleveland Center
12:54PM 41.9261 -83.3558 207° Southwest 211 243 4,400 -1,020 Descending Cleveland Center
12:55PM 41.9078 -83.3667 204° Southwest 213 245 4,100 -420 Descending Cleveland Center
12:55PM 41.8753 -83.3881 206° Southwest 191 220 4,000 -120 Descending Cleveland Center
12:56PM 41.8608 -83.3972 205° Southwest 196 226 4,000  Level Cleveland Center
12:56PM 41.8583 -83.4444 266° West 176 203 4,000  Level Cleveland Center
12:57PM 41.8625 -83.4769 280° West 184 212 4,000  Level Cleveland Center
12:57PM 41.8742 -83.5083 297° West 177 204 4,000  Level Cleveland Center
12:58PM 41.8969 -83.5078 North 184 212 4,000  Level Cleveland Center
12:58PM 41.9244 -83.5100 357° North 174 200 4,000  Level Cleveland Center
12:59PM 41.9494 -83.5056 North 173 199 4,000  Level Cleveland Center
12:59PM 41.9728 -83.5083 355° North 173 199 4,000  Level Cleveland Center
01:00PM 41.9911 -83.5003 18° North 169 194 4,000  Level Cleveland Center
01:01PM 42.0211 -83.4789 28° Northeast 174 200 4,000  Level Cleveland Center
01:01PM 42.0336 -83.4683 32° Northeast 175 201 4,000 -240 Level Cleveland Center
01:02PM 42.0611 -83.4508 25° Northeast 164 189 3,800 -720 Descending Cleveland Center
01:02PM 42.0800 -83.4347 32° Northeast 163 188 3,300 -900 Descending Cleveland Center
01:03PM 42.0944 -83.4272 21° North 139 160 3,000 -720 Descending Cleveland Center
01:03PM 42.1133 -83.4111 32° Northeast 150 173 2,600 -840 Descending Cleveland Center
01:04PM 42.1322 -83.3989 26° Northeast 142 163 2,100 -780 Descending Cleveland Center
01:04PM 42.1475 -83.3858 32° Northeast 144 166 1,800 -780 Descending Cleveland Center
01:05PM 42.1656 -83.3756 23° Northeast 147 169 1,400 -780 Descending Cleveland Center
01:05PM 42.1822 -83.3594 36° Northeast 144 166 1,000 -360 Descending Cleveland Center
01:06PM 42.2169 -83.3342 28° Northeast 144 166 800 -240 Descending Cleveland Center